Weather History for Marshfield, WI

Change the Weather History Date:

Tuesday, April 24, 2012

  Actual Average Record
Temperature  
Mean Temperature 50 °F -  
Max Temperature 66 °F 60 °F 84 °F (1915)
Min Temperature 36 °F 34 °F 17 °F (1956)
Degree Days  
Heating Degree Days 15    
Moisture  
Dew Point 29 °F    
Average Humidity 44    
Maximum Humidity 73    
Minimum Humidity 29    
Precipitation  
Precipitation 0.00 in - - ()
Sea Level Pressure  
Sea Level Pressure 29.74 in    
Wind  
Wind Speed 5 mph (NW)    
Max Wind Speed 12 mph    
Max Gust Speed -    
Visibility 10 miles    
Events      
Averages and records for this station are not official NWS values.
T = Trace of Precipitation, MM = Missing Value Source: NWS Daily Summary

Daily Weather History Graph

Daily Weather History Graph

Search for Another Location

Airport:

Trip Planner

Search our weather history database for the weather conditions in past years. The results will help you decide how hot, cold, wet, or windy it might be!

Date:

Astronomy

Apr. 24, 2012 Rise Set
Actual Time 6:00 AM CDT 7:57 PM CDT
Civil Twilight 5:29 AM CDT 8:29 PM CDT
Nautical Twilight 4:51 AM CDT 9:07 PM CDT
Astronomical Twilight 4:09 AM CDT 9:49 PM CDT
Moon 7:50 AM CDT (4/24) 11:24 PM CDT (4/24)
Length of Visible Light 14h 59m
Length of Day
13h 56m
Waxing Crescent, 10% of the Moon is Illuminated
Apr 24
Waxing Crescent
Apr 29
First Quarter
May 5
Full
May 12
Last Quarter
May 20
New

Hourly Weather History & Observations

Time (CDT) Temp. Windchill Dew Point Humidity Pressure Visibility Wind Dir Wind Speed Gust Speed Precip Events Conditions
12:54 AM 39.9 °F 36.7 °F 27.0 °F 60% 29.86 in 10.0 mi NNW 4.6 mph - N/A   Overcast
1:54 AM 37.0 °F 33.3 °F 28.0 °F 70% 29.85 in 10.0 mi NW 4.6 mph - N/A   Scattered Clouds
2:54 AM 39.0 °F - 23.0 °F 53% 29.83 in 10.0 mi Calm Calm - N/A   Scattered Clouds
3:54 AM 36.0 °F 31.1 °F 25.0 °F 64% 29.82 in 10.0 mi WNW 5.8 mph - N/A   Clear
4:54 AM 36.0 °F 32.1 °F 26.1 °F 67% 29.82 in 10.0 mi WNW 4.6 mph - N/A   Clear
5:54 AM 36.0 °F 31.1 °F 28.0 °F 73% 29.81 in 10.0 mi NW 5.8 mph - N/A   Mostly Cloudy
6:54 AM 41.0 °F 38.0 °F 27.0 °F 57% 29.81 in 10.0 mi WNW 4.6 mph - N/A   Scattered Clouds
7:54 AM 44.1 °F 40.8 °F 28.9 °F 55% 29.81 in 10.0 mi WNW 5.8 mph - N/A   Overcast
8:54 AM 48.0 °F - 30.0 °F 50% 29.79 in 10.0 mi West 3.5 mph - N/A   Overcast
9:54 AM 51.1 °F - 28.0 °F 41% 29.77 in 10.0 mi West 5.8 mph - N/A   Overcast
10:54 AM 55.9 °F - 27.0 °F 33% 29.75 in 10.0 mi WNW 5.8 mph - N/A   Partly Cloudy
11:54 AM 59.0 °F - 30.0 °F 33% 29.73 in 10.0 mi Variable 5.8 mph - N/A   Clear
12:54 PM 61.0 °F - 32.0 °F 34% 29.72 in 10.0 mi North 9.2 mph - N/A   Clear
1:54 PM 62.1 °F - 33.1 °F 34% 29.70 in 10.0 mi WNW 11.5 mph - N/A   Clear
2:54 PM 64.0 °F - 33.1 °F 31% 29.69 in 10.0 mi WNW 6.9 mph - N/A   Clear
3:54 PM 64.0 °F - 33.1 °F 31% 29.68 in 10.0 mi WNW 4.6 mph - N/A   Clear
4:54 PM 64.9 °F - 32.0 °F 29% 29.67 in 10.0 mi WNW 6.9 mph - N/A   Clear
5:54 PM 64.0 °F - 30.9 °F 29% 29.65 in 10.0 mi WNW 5.8 mph - N/A   Clear
6:54 PM 64.0 °F - 32.0 °F 30% 29.65 in 10.0 mi West 4.6 mph - N/A   Clear
7:54 PM 57.9 °F - 28.0 °F 32% 29.67 in 10.0 mi ENE 8.1 mph - N/A   Clear
8:54 PM 54.0 °F - 28.0 °F 37% 29.69 in 10.0 mi ENE 6.9 mph - N/A   Clear
9:54 PM 54.0 °F - 28.0 °F 37% 29.70 in 10.0 mi ENE 8.1 mph - N/A   Clear
10:54 PM 52.0 °F - 28.9 °F 41% 29.69 in 10.0 mi ENE 8.1 mph - N/A   Partly Cloudy
11:54 PM 50.0 °F - 28.9 °F 44% 29.68 in 10.0 mi East 8.1 mph - N/A   Scattered Clouds